Погода в Сакраменто

США     38°33′42″N   121°26′59″W
темп.,
°C
ветер,
м/с
пор.,
м/с
влажн.,
%
обл.,
%
осадки,
мм/ч
давл.,
гПа
погр.,
м
19 апреля, пн
пн1923:00+16ююв3338100 0.0 101745
02:00+13ююв33555 0.0 101660
05:00+11ю2368100 0.0 101749
08:00+13ююз225910 0.0 1019144
11:00+22юз22343 0.0 1018705
14:00+28юз332794 0.0 10161129
17:00+27юз442652 0.0 1014888
20:00+18юз59480 0.0 1013201
20 апреля, вт
вт2023:00+13ююз48665 0.0 1014211
02:00+10ююз498091 0.0 1013230
05:00+9ююз3588100 0.0 1013129
08:00+12юз3469100 0.0 1013220
11:00+19юз34400 0.0 1012975
14:00+25з34300 0.0 10091857
17:00+26юз462711 0.0 10062602
20:00+16юз346695 0.6 100880
21 апреля, ср
ср2123:00+13з487694 0.6 1008160
02:00+11сз34820 0.0 100886
05:00+10зсз23830 0.0 100952
08:00+13зюз22630 0.0 1010192
11:00+21с12380 0.0 1010780
14:00+26ссз23250 0.0 10081207
17:00+28зсз23160 0.0 10062029
20:00+17юз59490 0.0 1006160
22 апреля, чт
чт2223:00+12ю34730 0.0 1008100
02:00+9ю23870 0.0 100978
05:00+9зюз01860 0.0 101027
08:00+12ююв12695 0.0 1012169
11:00+22ю113649 0.0 1012618
14:00+28юз23215 0.0 10101470
17:00+27юз75255 0.0 10081327
20:00+15юз612620 0.0 1009222
23 апреля, пт
пт2323:00+10ююз5108494 0.0 1011284
02:00+10юз61283100 0.0 1011286
05:00+9юз5109097 0.0 1012271
08:00+12юз46734 0.0 1014317
11:00+20юз34410 0.0 1013832
14:00+26ю34245 0.0 10111424
17:00+25юз763017 0.0 1010961
20:00+13юз81567100 0.0 1011315